Location: Kozienice
(51.5854°N, 21.5508°E)
Time: 17:21:52
(UTC+01:00)

ISS - Visible Passes

Search period start: 11 December 2018 00:00
Search period end: 21 December 2018 00:00
Orbit: 401 x 408 km, 51.6° (Epoch: 12 December)

Date Brightness Start Highest point End Pass type
(mag) Time Alt. Az. Time Alt. Az. Time Alt. Az.
11 Dec -2.3 16:39:11 10° W 16:42:14 37° SSW 16:45:17 10° SE visible
12 Dec -0.8 17:24:10 10° WSW 17:26:05 15° SW 17:27:58 10° S visible
13 Dec -1.2 16:31:29 10° W 16:34:05 22° SW 16:36:42 10° SSE visible
15 Dec -0.4 16:24:19 10° WSW 16:25:46 12° SW 16:27:13 10° SSW visible
